{"data":{"norad_id":67282,"intl_designator":"2025-313AL","name":"2025-313AL","alt_names":[],"object_type":"PAYLOAD","status":"ACTIVE","operator":null,"country":"TBD","launch_date":"2025-12-28","launch_site_code":"VOSTO","launch_vehicle":null,"mission":null,"orbit_class":"UNKNOWN","rcs_meters":null,"size_class":null,"mass_kg":null,"dimensions":null,"purposes":[],"wikipedia_slug":null,"has_3d_model":false,"image_url":null,"decayed_at":null,"tle_current":{"epoch":"2026-05-25T03:40:36.283008Z","epoch_age_seconds":71980,"freshness":"FRESH","line1":"1 67282U 25313AL  26145.15319772  .00005204  00000+0  22544-3 0  9992","line2":"2 67282  97.3931 220.2423 0012226  83.2976 276.9651 15.22763961 22453","mean_motion":15.22763961,"eccentricity":0.0012226,"inclination_deg":97.3931,"raan_deg":220.2423,"arg_perigee_deg":83.2976,"mean_anomaly_deg":276.9651,"bstar":0.00022544,"rev_number":2245,"period_min":94.564885752507,"perigee_km":489.10187996642,"apogee_km":505.91420722702,"semimajor_km":6875.6450435967,"source":"CELESTRAK","updated_at":"2026-05-25T13:38:06.853794Z"}}}